SCP
6 5 4 4 5 4 4 4 4 5 5 4 3 3 2 2 3 4 5 5 4 3 3 2 3 3 3 3 3 3 3 3 3 3 3 3 4 5 6 6 6 4 4
5 4 4 4 5 5 5 5 5 6 6 6 5 4 3 3 3 5 5 5 5 4 3 3 3 3 3 3 3 3 3 2 3 3 3 3 3 4 5 6 5 4 3
4 4 5 6 7 7 7 7 7 7 8 8 7 5 4 4 4 5 6 6 5 4 4 3 3 3 3 3 3 3 3 2 3 3 4 4 3 3 4 5 4 3 3
4 5 7 8 8 8 7 8 10 9 8 8 8 6 5 4 5 6 6 6 5 5 4 3 3 3 3 3 3 3 3 3 3 3 4 4 3 3 3 3 3 3 2
4 5 6 7 7 6 6 8 11 11 10 8 7 6 5 5 6 7 7 6 5 4 3 3 3 4 4 3 3 3 3 3 3 3 4 4 3 3 3 3 2 2 2
5 5 5 5 5 5 5 7 11 13 11 9 7 6 6 7 8 8 8 6 4 4 3 3 4 4 4 3 4 4 4 3 4 4 4 4 3 3 3 3 2 2 2
4 5 6 6 6 5 5 6 10 13 13 11 9 8 8 8 9 9 9 7 4 4 4 4 5 4 4 3 4 5 4 4 4 5 5 4 4 3 3 3 2 2 2
3 4 5 7 8 6 6 7 9 13 13 11 10 10 9 9 10 11 11 8 6 5 5 5 5 5 4 4 4 5 5 5 5 5 5 5 4 3 3 3 2 2 2
2 3 4 6 7 7 7 8 10 12 13 12 11 11 10 10 10 12 12 10 7 6 6 6 6 6 6 6 5 5 5 6 6 6 6 5 5 4 3 3 2 2 2
3 3 3 5 6 6 7 8 10 12 13 13 12 11 11 11 11 13 14 12 9 8 8 9 9 9 9 9 8 8 8 7 7 7 6 6 5 4 3 3 3 3 2
4 4 3 4 5 5 5 6 8 11 12 13 12 12 12 11 11 13 14 13 10 9 10 11 11 12 11 11 11 11 10 10 9 8 8 7 7 6 4 4 4 3 3
4 4 3 4 4 4 4 5 7 9 11 12 12 12 12 12 12 13 13 12 9 8 8 9 10 11 12 12 12 13 12 11 10 9 8 8 8 7 6 5 5 5 5
5 4 4 4 5 6 8 9 10 11 12 11 11 11 11 11 11 11 11 9 8 7 7 8 10 11 11 12 13 13 13 12 11 10 9 8 8 8 8 7 6 6 6
6 6 5 5 7 10 13 15 14 13 12 11 10 10 10 10 10 9 9 8 7 7 8 9 10 11 12 12 12 13 13 13 12 11 10 9 9 9 8 8 7 7 7
7 7 7 8 9 11 14 14 13 12 12 11 10 10 10 9 8 8 8 7 7 7 8 9 10 11 10 9 9 10 11 12 13 13 12 10 9 8 7 7 7 8 8
9 10 10 10 10 10 10 10 10 10 11 10 10 9 9 8 7 7 7 7 7 7 8 8 9 9 7 6 5 6 8 11 13 14 13 11 9 8 7 6 6 7 7
11 14 16 14 12 10 10 9 9 10 10 9 9 8 7 6 6 6 6 7 8 8 8 8 8 8 7 6 4 4 6 10 12 13 12 10 8 8 8 8 7 6 6
12 15 18 18 14 11 10 9 10 10 9 9 8 7 6 6 6 6 6 7 8 9 8 8 8 9 8 7 4 3 5 8 10 11 10 8 7 7 9 10 10 8 7
11 13 15 17 15 11 10 10 11 11 10 9 8 6 5 5 6 6 6 7 8 8 8 8 8 8 8 6 3 2 4 6 8 8 7 6 6 5 7 8 9 8 8
10 10 11 14 14 12 11 12 13 12 11 9 8 6 5 5 5 5 6 6 7 7 7 8 8 8 7 4 2 1 3 5 6 7 6 5 4 3 3 4 6 6 5
8 8 9 11 12 12 11 12 14 14 12 10 8 6 5 5 5 5 5 6 6 7 7 7 8 8 6 4 1 1 2 4 5 6 6 4 2 1 1 2 3 4 3
10 13 14 12 12 12 11 12 13 15 13 10 7 6 6 5 5 6 6 7 6 6 7 7 8 8 7 4 1 0 1 2 4 5 5 3 2 0 0 1 1 2 2
12 21 28 22 15 13 12 12 13 14 13 10 8 7 7 7 7 8 8 8 7 7 7 7 7 8 7 5 2 1 0 1 2 3 2 2 1 0 0 0 0 0 1
11 19 31 34 25 16 13 14 14 14 13 11 9 9 8 7 8 9 10 9 9 8 8 8 8 8 9 6 3 1 1 1 1 1 1 1 1 1 1 1 1 1 1
8 11 20 31 36 26 17 14 14 15 14 13 12 10 8 6 7 9 10 9 8 7 7 8 8 9 9 7 4 2 2 2 1 1 1 2 2 2 2 2 2 1 1
7 7 11 22 37 37 22 15 15 16 16 15 13 10 7 6 7 9 10 7 5 4 5 6 7 9 9 7 3 2 2 2 1 2 2 2 2 2 2 2 2 2 2
Wind_Speed
9 9 9 9 9 7 6 5 5 4 2 2 2 2 2 1 1 2 2 2 2 2 2 2 1 2 1 2 2 1 2 2 2 1 1 2 3 3 4 3 3 4 4
10 10 9 9 9 8 7 6 5 5 4 3 2 2 2 2 2 1 2 2 1 2 2 2 1 2 1 2 2 1 2 2 1 1 1 1 1 2 3 3 3 3 3
10 10 10 9 9 9 8 6 5 5 4 3 2 2 1 1 1 2 2 2 2 1 1 1 2 1 1 1 2 2 3 2 2 1 1 1 1 1 1 2 3 2 2
10 11 10 9 9 9 9 7 6 5 4 3 3 3 2 2 1 1 2 3 3 2 1 1 2 1 1 1 3 2 2 2 2 2 1 1 1 1 1 1 1 2 2
10 9 10 9 8 9 9 8 6 5 5 4 3 3 2 2 1 1 2 2 2 2 1 1 1 1 1 1 1 1 1 1 2 2 1 1 2 2 2 1 1 1 1
10 10 9 9 8 8 7 8 7 6 5 5 4 3 2 1 1 1 1 2 2 2 2 2 1 0 1 1 1 1 2 1 2 2 1 1 1 1 2 2 2 2 2
9 9 9 9 8 8 7 7 8 7 6 6 5 4 3 3 2 2 1 2 1 2 1 1 1 1 1 1 1 1 1 1 1 2 2 2 2 2 2 2 2 2 2
8 8 8 8 8 8 8 8 8 8 7 6 6 4 4 3 3 2 2 1 1 1 2 2 1 1 0 1 1 1 1 1 1 2 2 2 2 2 2 2 2 2 2
7 8 9 8 7 7 7 8 7 6 6 6 6 5 4 3 2 1 2 1 1 1 2 2 2 1 0 0 0 0 0 1 2 2 2 2 2 2 2 2 2 2 2
7 6 7 7 7 7 7 8 7 6 5 5 5 5 4 3 2 1 1 0 0 0 1 1 1 1 1 1 1 1 1 1 1 1 2 2 2 2 2 2 2 1 2
6 6 5 5 6 7 7 6 6 6 6 5 5 4 4 3 3 1 1 1 1 1 0 0 0 1 1 1 1 1 1 1 1 2 1 1 1 2 2 2 2 1 2
5 5 5 5 5 5 6 5 5 5 5 4 4 4 3 3 2 2 1 1 0 0 0 0 0 1 1 1 2 2 1 1 1 2 2 2 1 2 2 2 2 2 2
5 5 5 2 2 3 4 5 5 5 5 5 4 3 3 3 3 2 2 1 1 0 1 0 1 1 1 1 2 2 2 2 2 2 2 1 1 2 2 2 2 2 3
4 5 5 4 3 3 3 3 4 4 4 4 4 3 3 2 2 2 2 1 1 1 0 1 1 0 0 1 2 2 2 2 2 2 2 2 2 2 3 3 2 2 2
4 5 5 5 4 4 3 4 4 4 3 3 3 3 3 3 2 2 2 1 1 1 0 1 1 1 1 1 1 2 3 2 3 2 2 2 2 2 3 3 2 2 2
5 5 5 6 5 4 3 4 3 3 4 3 3 3 3 3 3 3 2 1 1 0 0 0 0 1 1 2 2 2 3 3 3 3 2 3 3 2 4 4 4 3 3
4 5 6 6 4 4 4 4 3 4 3 3 3 3 3 3 2 2 2 1 1 1 1 0 0 0 1 2 3 4 4 4 3 3 3 4 2 1 2 3 4 5 7
3 4 5 5 5 5 4 4 4 3 3 3 3 3 3 3 3 2 2 1 1 1 1 1 1 1 1 1 2 4 4 4 3 3 3 2 2 2 2 3 3 4 4
3 3 3 5 4 5 5 3 3 3 3 3 3 3 3 3 3 2 2 2 1 1 2 1 2 1 1 0 1 2 3 2 3 3 2 2 1 1 2 2 3 4 4
4 3 3 4 5 5 5 4 3 3 2 2 2 3 2 2 2 2 1 1 1 2 2 1 1 1 1 1 0 1 3 3 3 2 1 1 1 1 1 2 3 4 4
5 4 4 4 4 4 4 3 3 2 2 1 2 2 2 2 3 2 2 2 2 2 3 2 3 2 3 3 2 2 2 3 3 2 2 1 1 2 3 3 3 5 5
5 4 3 4 3 3 3 3 2 1 1 1 2 2 2 2 2 2 2 3 3 3 3 3 3 2 3 3 2 3 4 4 3 3 2 2 3 3 4 4 5 6 5
4 3 3 3 3 3 2 2 1 1 1 1 2 2 2 2 2 3 3 3 2 2 2 2 1 1 1 2 1 3 5 5 3 3 4 4 4 4 4 5 6 4 3
3 2 2 3 2 2 1 1 1 1 1 2 2 2 3 3 2 2 2 2 1 1 1 1 1 1 1 1 1 2 2 4 4 3 3 4 5 4 5 4 3 3 3
2 1 2 1 1 1 1 0 0 0 1 2 2 3 3 3 2 2 1 2 1 1 1 1 1 1 1 1 1 2 2 3 3 3 2 2 2 2 2 2 2 2 2
2 1 1 1 1 0 0 0 0 1 1 2 2 3 2 2 3 3 2 1 2 4 4 2 1 0 1 1 2 3 4 5 3 2 2 2 2 2 3 3 2 2 2
Wind_Direction
165 164 163 158 151 147 149 156 162 155 163 174 191 207 198 200 178 177 162 161 205 228 229 270 192 218 231 222 237 233 239 248 233 239 261 240 221 199 192 199 195 195 201
166 167 169 167 162 156 159 166 167 163 176 181 198 207 205 204 176 166 146 162 194 233 230 250 252 216 226 225 241 228 248 248 225 219 253 269 247 242 213 190 198 195 190
167 167 171 172 170 166 167 168 166 166 180 183 193 208 192 228 197 174 151 166 182 202 266 220 264 248 233 214 223 221 226 242 233 200 199 215 237 232 211 208 198 180 174
168 169 171 173 176 170 166 161 164 167 175 182 200 213 198 204 209 181 166 171 174 189 216 228 240 262 257 231 230 219 241 244 256 234 228 233 205 228 254 236 183 182 196
163 170 173 174 180 175 169 163 161 168 172 187 201 214 221 214 208 167 167 164 165 185 202 205 221 235 248 254 248 203 231 243 254 261 249 255 241 229 215 241 226 219 209
162 168 174 170 179 180 172 160 160 172 177 183 192 197 217 217 267 251 187 176 177 184 190 185 204 210 273 269 242 224 208 241 262 275 272 250 240 241 229 228 244 237 226
166 170 171 168 171 174 173 163 163 172 178 182 189 192 202 202 217 255 224 196 200 176 169 161 136 169 257 272 230 183 209 221 253 272 277 269 259 241 236 228 244 248 244
171 169 170 168 172 176 174 167 166 173 177 181 187 191 198 211 215 227 255 223 223 163 142 142 134 127 350 303 311 215 205 216 235 251 264 274 274 260 250 241 238 263 267
172 173 174 170 173 173 172 168 160 168 177 182 180 184 191 204 219 218 234 251 290 199 122 141 143 141 151 299 293 265 249 230 243 253 258 268 281 287 283 273 247 232 260
179 170 166 166 168 171 166 160 159 163 170 183 191 186 191 195 195 212 207 201 5 34 113 146 154 153 188 220 251 242 225 238 249 251 268 270 281 289 282 288 288 259 251
171 166 163 161 165 167 164 160 157 159 168 178 183 179 179 181 184 201 185 103 22 50 33 72 105 234 240 246 256 260 254 250 276 280 272 269 286 304 310 306 291 270 261
164 159 155 161 171 165 156 155 158 160 161 160 166 174 162 158 163 160 133 113 91 33 348 14 297 262 285 290 277 278 288 277 273 280 288 294 299 297 302 307 304 288 271
149 143 135 144 160 144 147 154 151 150 155 157 161 157 161 154 157 155 136 119 103 339 329 291 288 307 326 320 314 307 290 281 275 279 281 280 287 297 299 288 288 287 284
151 145 134 129 114 107 113 121 132 130 130 137 145 141 145 146 149 150 146 144 155 176 334 310 293 265 3 349 326 315 295 282 277 277 282 275 262 271 281 272 273 279 282
160 149 140 132 126 117 116 113 117 120 121 129 138 134 130 125 130 133 132 134 145 167 184 279 291 266 186 339 336 306 294 295 289 287 283 283 286 277 278 282 289 284 277
162 154 145 140 142 138 132 122 123 123 128 142 142 133 135 134 139 142 135 142 152 177 214 264 312 321 355 26 5 326 298 282 279 287 292 274 248 261 261 267 272 273 271
163 155 148 149 150 150 137 130 124 122 128 134 140 144 148 146 141 145 141 167 184 188 233 239 273 100 63 20 346 326 288 278 273 271 274 286 295 300 293 276 267 270 265
137 141 152 146 145 142 126 127 136 132 134 139 143 150 158 159 158 165 177 188 198 202 230 243 252 217 81 14 320 312 278 276 272 269 264 270 280 303 318 301 297 288 282
81 108 132 135 131 129 124 126 138 137 138 149 159 160 164 163 168 182 192 197 214 227 233 224 228 209 150 30 319 320 286 280 285 278 279 289 269 314 318 303 296 293 290
88 97 96 113 116 122 130 142 156 151 147 154 163 162 164 164 178 192 200 229 240 239 242 234 228 213 156 199 301 325 296 303 301 289 264 45 338 299 303 286 288 287 290
78 85 91 98 111 121 133 150 151 151 152 158 172 170 172 195 190 184 194 223 237 238 239 236 234 217 184 182 207 240 286 306 311 317 318 4 11 297 278 272 272 273 287
71 73 80 89 98 118 126 129 130 133 139 164 182 174 187 222 193 180 201 221 236 243 242 236 227 206 164 145 199 239 261 297 306 310 321 343 334 303 285 276 275 276 284
70 62 76 79 78 77 99 125 128 151 167 186 200 194 204 214 206 207 214 222 226 236 248 266 275 260 133 133 217 242 265 286 293 314 331 326 303 300 286 268 272 276 272
77 64 67 78 67 66 52 77 107 193 210 217 215 211 213 213 214 216 211 212 223 250 268 275 291 300 77 74 345 299 282 292 293 310 322 308 286 275 269 278 272 257 262
86 77 78 102 111 102 93 41 350 232 223 231 234 230 223 216 213 208 225 212 179 181 219 295 307 317 321 325 287 283 290 296 305 315 295 291 298 301 300 300 291 274 271
89 76 54 50 26 58 87 84 351 302 273 249 245 246 240 214 208 204 205 133 186 173 170 179 202 185 158 179 266 285 285 285 286 275 278 282 282 290 296 293 292 289 295